Location: C�mpuri de-Sus
(45.9500°N, 22.5500°E)
Time: 05:51:10
(UTC+00:00)

Cosmos 2360 Rocket - Pass Details

Date: 24 October 2021
Orbit: 832 x 846 km, 71.0° (Epoch: 04 December)

Event Time Altitude Azimuth Distance (km) Brightness Sun altitude
Rises 18:14:55 0° 227° (SW) 3,379 5.8 -29.5°
Reaches altitude 10° 18:17:29 10° 234° (SW) 2,450 5.0 -29.9°
Maximum altitude 18:22:47 41° 305° (NW) 1,202 3.3 -30.8°
Enters shadow 18:26:25 19° 6° (N) 1,901 4.1 -31.4°
